Barter Island, AK

2:42 AM AKDT on June 26, 2017 (GMT -0800)
Barter Island LRRS

Weather History for PABA - January, 2012

Change the Weather History Date:

Monday, January 9, 2012

  Actual Average Record
Temperature  
Mean Temperature -14 °F -  
Max Temperature -20 °F 0 °F 33 °F (2011)
Min Temperature -20 °F -11 °F -33 °F (1997)
Degree Days  
Heating Degree Days 78    
Moisture  
Dew Point -16 °F    
Average Humidity 79    
Maximum Humidity 84    
Minimum Humidity 70    
Precipitation  
Precipitation 0.00 in - - ()
Sea Level Pressure  
Sea Level Pressure 29.73 in    
Wind  
Wind Speed 23 mph (West)    
Max Wind Speed 32 mph    
Max Gust Speed 36 mph    
Visibility 6 miles    
Events Snow    
Averages and records for this station are not official NWS values.
T = Trace of Precipitation, MM = Missing Value Source: NWS Daily Summary

Daily Weather History Graph

Daily Weather History Graph

Search for Another Location

Airport or City:

Trip Planner

Search our weather history database for the weather conditions in past years. The results will help you decide how hot, cold, wet, or windy it might be!

Date:

Astronomy

Jan. 09, 2012 Rise Set
Actual Time 12:08 PM AKST 1:13 PM AKST
Civil Twilight 10:10 AM AKST 3:12 PM AKST
Nautical Twilight 8:31 AM AKST 4:51 PM AKST
Astronomical Twilight 7:14 AM AKST 6:09 PM AKST
Moon 3:22 PM AKST (1/9) 11:11 AM AKST (1/9)
Length of Visible Light 5h 01m
Length of Day
1h 04m
Full, 100% of the Moon is Illuminated
Jan 9
Full
Jan 16
Last Quarter
Jan 22
New
Jan 30
First Quarter
Feb 7
Full

Hourly Weather History & Observations

Time (AKST) Temp. Windchill Dew Point Humidity Pressure Visibility Wind Dir Wind Speed Gust Speed Precip Events Conditions
12:01 AM -9.4 °F -35.2 °F -14.8 °F 77% 29.60 in 3.0 mi West 21.9 mph 28.8 mph 0.00 in   Overcast
12:53 AM -9.4 °F -37.3 °F -14.8 °F 77% 29.61 in 1.8 mi West 26.5 mph 29.9 mph 0.00 in Snow Light Snow
1:01 AM -9.9 °F -38.4 °F -14.1 °F 82% 29.62 in 1.5 mi West 27.6 mph - 0.00 in Snow Light Snow
1:18 AM -9.4 °F -36.3 °F -14.8 °F 77% 29.61 in 2.0 mi West 24.2 mph - 0.00 in Snow Light Snow
1:22 AM -9.4 °F -36.3 °F -14.8 °F 77% 29.61 in 1.8 mi West 24.2 mph - 0.00 in Snow Light Snow
1:30 AM -9.4 °F -35.8 °F -14.8 °F 77% 29.61 in 1.8 mi West 23.0 mph - 0.00 in Snow Light Snow
1:41 AM -9.4 °F -35.2 °F -14.8 °F 77% 29.61 in 2.0 mi West 21.9 mph - 0.00 in Snow Light Snow
2:01 AM -9.0 °F -37.2 °F -13.0 °F 83% 29.62 in 2.0 mi West 27.6 mph - 0.00 in Snow Light Snow
2:09 AM -9.4 °F -39.4 °F -13.0 °F 84% 29.62 in 1.5 mi West 32.2 mph - 0.00 in Snow Light Snow
2:38 AM -9.4 °F -36.8 °F -13.0 °F 84% 29.63 in 2.0 mi West 25.3 mph - 0.00 in   Scattered Clouds
2:50 AM -7.6 °F -34.4 °F -11.2 °F 84% 29.63 in 3.0 mi West 25.3 mph - 0.00 in   Mostly Cloudy
3:01 AM -7.6 °F -35.7 °F -11.2 °F 84% 29.63 in 2.0 mi West 28.8 mph - 0.00 in Snow Light Snow
3:12 AM -8.0 °F -34.9 °F -11.9 °F 83% 29.63 in 2.0 mi West 25.3 mph 31.1 mph 0.00 in Snow Light Snow
3:26 AM -7.6 °F -33.9 °F -11.2 °F 84% 29.64 in 3.0 mi West 24.2 mph - 0.00 in   Overcast
3:38 AM -7.6 °F -34.8 °F -11.2 °F 84% 29.64 in 2.0 mi West 26.5 mph - 0.00 in   Overcast
4:01 AM -7.6 °F -34.4 °F -11.2 °F 84% 29.65 in 3.0 mi West 25.3 mph - 0.00 in   Overcast
5:01 AM -8.0 °F -32.8 °F -11.9 °F 83% 29.65 in 9.0 mi West 20.7 mph 27.6 mph 0.00 in   Overcast
5:16 AM -7.6 °F -36.1 °F -13.0 °F 77% 29.66 in 2.5 mi West 29.9 mph 35.7 mph N/A   Haze
5:29 AM -9.4 °F -37.7 °F -14.8 °F 77% 29.67 in 3.0 mi West 27.6 mph - 0.00 in Snow Light Snow
6:01 AM -11.0 °F -39.9 °F -15.0 °F 83% 29.67 in 5.0 mi West 27.6 mph - 0.00 in   Clear
7:01 AM -9.9 °F -35.4 °F -14.1 °F 82% 29.68 in 9.0 mi West 20.7 mph - N/A   Clear
8:01 AM -11.0 °F -29.9 °F -16.1 °F 78% 29.70 in 10.0 mi West 10.4 mph - N/A   Clear
9:01 AM -14.1 °F -38.9 °F -18.0 °F 82% 29.73 in 10.0 mi West 17.3 mph - N/A   Clear
10:01 AM -15.0 °F -36.8 °F -20.0 °F 78% 29.76 in 10.0 mi West 12.7 mph - N/A   Clear
11:01 AM -15.0 °F -42.6 °F -20.0 °F 78% 29.79 in 10.0 mi West 21.9 mph - N/A   Clear
12:01 PM -15.0 °F -39.3 °F -20.0 °F 78% 29.81 in 10.0 mi West 16.1 mph - N/A   Clear
1:01 PM -15.0 °F -41.4 °F -20.0 °F 78% 29.84 in 8.0 mi West 19.6 mph - N/A   Clear
2:01 PM -14.1 °F -39.6 °F -18.9 °F 79% 29.86 in 10.0 mi West 18.4 mph - N/A   Clear
3:01 PM -14.1 °F -40.2 °F -18.9 °F 79% 29.89 in 10.0 mi West 19.6 mph - N/A   Clear
4:01 PM -13.0 °F -43.0 °F -18.0 °F 78% 29.91 in 3.0 mi West 28.8 mph - N/A   Haze
5:01 PM -13.0 °F -42.6 °F -18.0 °F 78% 29.93 in 5.0 mi West 27.6 mph 31.1 mph N/A   Haze
6:01 PM -11.9 °F -37.4 °F -17.0 °F 78% 29.95 in 10.0 mi WNW 19.6 mph - N/A   Clear
7:01 PM -13.0 °F -36.0 °F -18.0 °F 78% 29.94 in 10.0 mi West 15.0 mph - N/A   Clear
8:01 PM -15.0 °F -36.8 °F -20.9 °F 75% 29.94 in 10.0 mi SSW 12.7 mph - N/A   Clear
9:01 PM -15.0 °F -34.8 °F -20.9 °F 75% 29.94 in 10.0 mi SW 10.4 mph - N/A   Clear
10:01 PM -20.9 °F - -27.9 °F 70% 29.94 in 10.0 mi Calm Calm - N/A   Clear
11:01 PM -18.9 °F -29.5 °F -26.0 °F 70% 29.94 in 10.0 mi Variable 3.5 mph - N/A   Clear